TimeCDT,TemperatureF,Dew PointF,Humidity,Sea Level PressureIn,VisibilityMPH,Wind Direction,Wind SpeedMPH,Gust SpeedMPH,PrecipitationIn,Events,Conditions,WindDirDegrees,DateUTC
12:53 AM,66.0,60.1,81,30.02,10.0,Calm,Calm,-,N/A,,Clear,0,2013-06-14 05:53:00
1:53 AM,64.9,60.1,84,30.03,10.0,WNW,3.5,-,N/A,,Clear,290,2013-06-14 06:53:00
2:53 AM,64.0,59.0,84,30.03,10.0,NNW,3.5,-,N/A,,Clear,340,2013-06-14 07:53:00
3:53 AM,64.0,59.0,84,30.02,10.0,Calm,Calm,-,N/A,,Clear,0,2013-06-14 08:53:00
4:53 AM,64.0,59.0,84,30.00,10.0,ENE,4.6,-,N/A,,Partly Cloudy,70,2013-06-14 09:53:00
5:53 AM,63.0,59.0,87,30.01,10.0,East,4.6,-,N/A,,Partly Cloudy,100,2013-06-14 10:53:00
6:53 AM,64.9,60.1,84,30.05,10.0,NE,3.5,-,N/A,,Overcast,50,2013-06-14 11:53:00
7:53 AM,69.1,61.0,75,30.03,10.0,ESE,6.9,-,N/A,,Partly Cloudy,110,2013-06-14 12:53:00
8:50 AM,71.6,62.6,73,30.00,10.0,SE,8.1,-,N/A,Thunderstorm,Clear,130,2013-06-14 13:50:00
8:53 AM,72.0,62.1,71,29.99,10.0,SE,8.1,-,N/A,Thunderstorm,Clear,130,2013-06-14 13:53:00
9:09 AM,71.6,62.6,73,30.01,10.0,SE,11.5,17.3,N/A,,Clear,140,2013-06-14 14:09:00
9:53 AM,71.1,61.0,70,30.04,10.0,Calm,Calm,-,N/A,Thunderstorm,Overcast,0,2013-06-14 14:53:00
10:16 AM,66.2,62.6,88,30.10,1.8,SSE,8.1,18.4,0.07,Rain-Thunderstorm,Heavy Thunderstorms and Rain,160,2013-06-14 15:16:00
10:26 AM,64.4,62.6,94,30.09,3.0,Variable,3.5,-,0.18,Rain-Thunderstorm,Thunderstorms and Rain,0,2013-06-14 15:26:00
10:53 AM,66.0,62.1,87,30.04,7.0,South,9.2,-,0.23,Rain-Thunderstorm,Light Thunderstorms and Rain,170,2013-06-14 15:53:00
11:19 AM,64.4,60.8,88,30.06,1.8,SE,6.9,-,0.12,Rain-Thunderstorm,Heavy Thunderstorms and Rain,140,2013-06-14 16:19:00
11:28 AM,64.4,62.6,94,30.05,3.0,South,6.9,-,0.19,Rain-Thunderstorm,Light Thunderstorms and Rain,170,2013-06-14 16:28:00
11:53 AM,64.9,62.1,90,30.03,4.0,South,10.4,-,0.25,Rain-Thunderstorm,Light Thunderstorms and Rain,170,2013-06-14 16:53:00
12:14 PM,64.4,62.6,94,30.03,-9999.0,South,11.5,17.3,0.02,Thunderstorm,Thunderstorm,170,2013-06-14 17:14:00
12:30 PM,64.4,62.6,94,30.01,10.0,SSE,12.7,23.0,0.02,,Unknown,160,2013-06-14 17:30:00
12:48 PM,66.2,62.6,88,29.99,10.0,SSE,13.8,21.9,0.02,Thunderstorm,Mostly Cloudy,160,2013-06-14 17:48:00
12:53 PM,66.0,62.1,87,29.98,10.0,SSE,12.7,20.7,0.02,Thunderstorm,Mostly Cloudy,150,2013-06-14 17:53:00
1:03 PM,66.2,62.6,88,29.99,10.0,SSE,12.7,24.2,N/A,,Mostly Cloudy,160,2013-06-14 18:03:00
1:18 PM,66.2,62.6,88,30.01,10.0,East,5.8,16.1,N/A,Thunderstorm,Overcast,100,2013-06-14 18:18:00
1:36 PM,66.2,62.6,88,30.06,1.8,Variable,5.8,-,N/A,Thunderstorm,Unknown,0,2013-06-14 18:36:00
1:53 PM,64.9,62.1,90,30.00,4.0,SSE,19.6,24.2,0.15,Rain-Thunderstorm,Light Thunderstorms and Rain,150,2013-06-14 18:53:00
2:53 PM,64.9,61.0,87,29.95,5.0,SSE,12.7,20.7,0.07,Rain-Thunderstorm,Light Thunderstorms and Rain,160,2013-06-14 19:53:00
3:02 PM,66.2,62.6,88,29.97,10.0,SSE,10.4,23.0,0.00,Rain-Thunderstorm,Light Thunderstorms and Rain,160,2013-06-14 20:02:00
3:08 PM,68.0,62.6,83,29.97,10.0,SE,10.4,23.0,0.00,,Scattered Clouds,140,2013-06-14 20:08:00
3:53 PM,70.0,62.1,76,29.98,10.0,ESE,6.9,-,0.00,,Overcast,120,2013-06-14 20:53:00
4:53 PM,72.0,62.1,71,29.97,10.0,ESE,5.8,-,N/A,,Scattered Clouds,120,2013-06-14 21:53:00
5:53 PM,75.0,63.0,66,29.94,10.0,SSE,11.5,-,N/A,,Clear,150,2013-06-14 22:53:00
6:53 PM,73.9,64.0,71,29.96,10.0,East,3.5,-,N/A,,Clear,100,2013-06-14 23:53:00
7:53 PM,69.1,64.0,84,29.94,10.0,East,8.1,16.1,N/A,,Clear,100,2013-06-15 00:53:00
8:53 PM,66.9,61.0,81,29.94,10.0,East,9.2,-,N/A,,Clear,100,2013-06-15 01:53:00
9:53 PM,66.9,62.1,84,29.93,10.0,SSE,10.4,18.4,N/A,,Clear,150,2013-06-15 02:53:00
10:53 PM,68.0,62.1,81,29.87,10.0,South,17.3,21.9,N/A,,Clear,170,2013-06-15 03:53:00
11:23 PM,69.8,62.6,78,29.93,10.0,South,13.8,20.7,N/A,Thunderstorm,Partly Cloudy,180,2013-06-15 04:23:00
11:45 PM,66.2,60.8,83,30.06,6.0,NNW,27.6,41.4,0.00,Rain-Thunderstorm,Light Thunderstorms and Rain,330,2013-06-15 04:45:00
11:50 PM,62.6,60.8,94,30.04,1.8,NNW,31.1,40.3,0.07,Rain-Thunderstorm,Heavy Thunderstorms and Rain,330,2013-06-15 04:50:00
11:53 PM,63.0,60.1,90,30.05,1.5,NNW,34.5,44.9,0.16,Rain-Thunderstorm,Heavy Thunderstorms and Rain,330,2013-06-15 04:53:00
11:58 PM,62.6,60.8,94,30.07,1.8,NW,15.0,44.9,0.06,Rain-Thunderstorm,Heavy Thunderstorms and Rain,310,2013-06-15 04:58:00